London, KY

8:15 AM EST on February 25, 2017 (GMT -0500)
London-Corbin / McKee

Weather History for KLOZ - March, 2012

Change the Weather History Date:

Monday, March 26, 2012

  Actual Average Record
Temperature  
Mean Temperature 57 °F 50 °F  
Max Temperature 67 °F 62 °F 84 °F (2007)
Min Temperature 46 °F 39 °F 15 °F (1955)
Degree Days  
Heating Degree Days 8 15  
Month to date heating degree days 241 478  
Since 1 July heating degree days 3276 3754  
Cooling Degree Days 0 0  
Month to date cooling degree days 19 0  
Year to date cooling degree days 19 0  
Growing Degree Days 6 (Base 50)    
Moisture  
Dew Point 49 °F    
Average Humidity 69    
Maximum Humidity 100    
Minimum Humidity 38    
Precipitation  
Precipitation 0.00 in 0.13 in 0.93 in (2009)
Month to date precipitation 3.86 3.39  
Year to date precipitation 10.47 10.64  
Sea Level Pressure  
Sea Level Pressure 30.09 in    
Wind  
Wind Speed 7 mph (NNW)    
Max Wind Speed 17 mph    
Max Gust Speed 22 mph    
Visibility 7 miles    
Events Fog    
T = Trace of Precipitation, MM = Missing Value Source: NWS Daily Summary

Daily Weather History Graph

Daily Weather History Graph

Search for Another Location

Airport or City:

Trip Planner

Search our weather history database for the weather conditions in past years. The results will help you decide how hot, cold, wet, or windy it might be!

Date:

Astronomy

Mar. 26, 2012 Rise Set
Actual Time 7:30 AM EDT 7:53 PM EDT
Civil Twilight 7:04 AM EDT 8:20 PM EDT
Nautical Twilight 6:33 AM EDT 8:50 PM EDT
Astronomical Twilight 6:02 AM EDT 9:21 PM EDT
Moon 9:24 AM EDT (3/26) 11:57 PM EDT (3/26)
Length of Visible Light 13h 15m
Length of Day
12h 23m
Waxing Crescent, 14% of the Moon is Illuminated
Mar 26
Waxing Crescent
Mar 30
First Quarter
Apr 6
Full
Apr 13
Last Quarter
Apr 21
New

Hourly Weather History & Observations

Time (EDT) Temp. Dew Point Humidity Pressure Visibility Wind Dir Wind Speed Gust Speed Precip Events Conditions
12:53 AM 60.1 °F 52.0 °F 75% 29.99 in 10.0 mi North 5.8 mph - N/A   Overcast
1:53 AM 59.0 °F 52.0 °F 78% 30.00 in 10.0 mi North 3.5 mph - N/A   Overcast
2:20 AM 59.0 °F 51.8 °F 77% 30.02 in 10.0 mi North 6.9 mph - N/A   Overcast
2:45 AM 57.2 °F 51.8 °F 82% 30.02 in 10.0 mi North 4.6 mph - N/A   Scattered Clouds
2:53 AM 57.0 °F 52.0 °F 83% 30.00 in 10.0 mi NNW 5.8 mph - N/A   Partly Cloudy
3:53 AM 54.0 °F 51.1 °F 90% 30.01 in 10.0 mi NNW 4.6 mph - N/A   Clear
4:53 AM 52.0 °F 50.0 °F 93% 30.01 in 10.0 mi NNW 4.6 mph - N/A   Clear
5:53 AM 51.1 °F 48.9 °F 92% 30.02 in 6.0 mi Calm Calm - N/A   Scattered Clouds
6:53 AM 50.0 °F 48.0 °F 93% 30.04 in 3.0 mi Calm Calm - N/A   Clear
7:12 AM 48.2 °F 48.2 °F 100% 30.05 in 2.0 mi Calm Calm - N/A   Partly Cloudy
7:19 AM 48.2 °F 48.2 °F 100% 30.06 in 1.2 mi Calm Calm - N/A   Scattered Clouds
7:24 AM 48.2 °F 46.4 °F 93% 30.06 in 3.0 mi Calm Calm - N/A   Scattered Clouds
7:36 AM 48.2 °F 48.2 °F 100% 30.06 in 1.8 mi Calm Calm - N/A   Scattered Clouds
7:42 AM 48.2 °F 46.4 °F 93% 30.06 in 0.8 mi Calm Calm - N/A   Mist
7:53 AM 48.0 °F 46.9 °F 96% 30.06 in 0.2 mi Calm Calm - N/A Fog Fog
8:16 AM 48.2 °F 48.2 °F 100% 30.08 in 2.0 mi Calm Calm - N/A   Overcast
8:23 AM 48.2 °F 48.2 °F 100% 30.08 in 4.0 mi Calm Calm - N/A   Overcast
8:31 AM 48.2 °F 48.2 °F 100% 30.08 in 4.0 mi Calm Calm - N/A   Mostly Cloudy
8:46 AM 51.8 °F 50.0 °F 94% 30.09 in 5.0 mi Calm Calm - N/A   Scattered Clouds
8:53 AM 51.1 °F 51.1 °F 100% 30.08 in 4.0 mi Calm Calm - N/A   Partly Cloudy
9:22 AM 55.4 °F 53.6 °F 94% 30.11 in 5.0 mi NW 5.8 mph - N/A   Mostly Cloudy
9:53 AM 55.9 °F 53.1 °F 90% 30.11 in 7.0 mi NW 4.6 mph - N/A   Overcast
10:28 AM 60.8 °F 53.6 °F 77% 30.13 in 6.0 mi NNW 4.6 mph - N/A   Haze
10:35 AM 60.8 °F 53.6 °F 77% 30.13 in 6.0 mi NNW 5.8 mph - N/A   Haze
10:53 AM 61.0 °F 55.0 °F 81% 30.12 in 7.0 mi WNW 5.8 mph - N/A   Mostly Cloudy
11:53 AM 59.0 °F 53.1 °F 81% 30.13 in 8.0 mi WNW 4.6 mph - N/A   Overcast
12:22 PM 62.6 °F 53.6 °F 72% 30.14 in 10.0 mi WNW 6.9 mph - N/A   Partly Cloudy
12:53 PM 64.0 °F 54.0 °F 70% 30.12 in 10.0 mi NW 6.9 mph - N/A   Partly Cloudy
1:53 PM 64.0 °F 52.0 °F 65% 30.12 in 10.0 mi North 12.7 mph 21.9 mph N/A   Mostly Cloudy
2:53 PM 64.0 °F 51.1 °F 63% 30.13 in 10.0 mi North 15.0 mph 20.7 mph N/A   Partly Cloudy
3:14 PM 60.8 °F 50.0 °F 68% 30.15 in 10.0 mi NNE 13.8 mph 20.7 mph N/A   Mostly Cloudy
3:41 PM 62.6 °F 51.8 °F 68% 30.14 in 10.0 mi North 10.4 mph - N/A   Scattered Clouds
3:53 PM 63.0 °F 51.1 °F 65% 30.13 in 10.0 mi North 12.7 mph - N/A   Clear
4:28 PM 62.6 °F 50.0 °F 63% 30.13 in 10.0 mi North 12.7 mph - N/A   Mostly Cloudy
4:45 PM 62.6 °F 51.8 °F 68% 30.13 in 10.0 mi North 10.4 mph - N/A   Scattered Clouds
4:53 PM 62.1 °F 50.0 °F 65% 30.12 in 10.0 mi North 11.5 mph - N/A   Scattered Clouds
5:53 PM 61.0 °F 48.0 °F 62% 30.13 in 10.0 mi NNE 12.7 mph - N/A   Clear
6:53 PM 61.0 °F 48.0 °F 62% 30.13 in 10.0 mi NNE 5.8 mph - N/A   Clear
7:53 PM 59.0 °F 39.0 °F 48% 30.14 in 10.0 mi North 11.5 mph - N/A   Clear
8:53 PM 55.9 °F 30.0 °F 37% 30.16 in 10.0 mi North 6.9 mph - N/A   Clear
9:53 PM 53.1 °F 33.1 °F 47% 30.18 in 10.0 mi North 8.1 mph - N/A   Clear
10:53 PM 50.0 °F 33.1 °F 52% 30.20 in 10.0 mi NNE 6.9 mph - N/A   Clear
11:53 PM 48.0 °F 33.1 °F 56% 30.21 in 10.0 mi NNE 6.9 mph - N/A   Clear